This is the latest recevied weather packets stored in our database for station/object SM4JDW-10. If no packets are shown the sender has not sent any weather packets the latest 10 day(s).
| Time | Temp. | Humidity | Pressure | Rain* | Wind** | Luminosity | Snow |
|---|---|---|---|---|---|---|---|
| 1788365286 | 18.33° C | 46% | 1002.5 hPa | - | - | - | - |
| 1788363486 | 18.89° C | 45% | 1002.5 hPa | - | - | - | - |
| 1788361686 | 19.44° C | 43% | 1002.4 hPa | - | - | - | - |
| 1788359885 | 20° C | 43% | 1002.3 hPa | - | - | - | - |
| 1788358085 | 20° C | 49% | 1002.4 hPa | - | - | - | - |
| 1788356285 | 20° C | 52% | 1002.5 hPa | - | - | - | - |
| 1788354485 | 19.44° C | 52% | 1002.5 hPa | - | - | - | - |
| 1788352685 | 18.33° C | 61% | 1002.8 hPa | - | - | - | - |
| 1788350885 | 17.78° C | 59% | 1003 hPa | - | - | - | - |
| 1788349085 | 17.22° C | 64% | 1003.4 hPa | - | - | - | - |
| 1788347285 | 16.67° C | 65% | 1003.9 hPa | - | - | - | - |
| 1788345484 | 16.11° C | 65% | 1004.1 hPa | - | - | - | - |
| 1788343684 | 16.11° C | 67% | 1003.9 hPa | - | - | - | - |
| 1788341884 | 15.56° C | 68% | 1003.9 hPa | - | - | - | - |
| 1788340087 | 15° C | 72% | 1004.1 hPa | - | - | - | - |
| 1788338287 | 15° C | 73% | 1004.1 hPa | - | - | - | - |
| 1788336487 | 14.44° C | 75% | 1004.1 hPa | - | - | - | - |
| 1788334687 | 13.33° C | 74% | 1004.2 hPa | - | - | - | - |
| 1788332887 | 13.33° C | 74% | 1004.3 hPa | - | - | - | - |
| 1788331087 | 12.78° C | 74% | 1004.1 hPa | - | - | - | - |
| 1788329287 | 12.22° C | 75% | 1004.2 hPa | - | - | - | - |
| 1788327486 | 12.22° C | 72% | 1004.3 hPa | - | - | - | - |
| 1788325686 | 11.67° C | 73% | 1004.5 hPa | - | - | - | - |
| 1788323885 | 11.67° C | 70% | 1004.6 hPa | - | - | - | - |
| 1788322085 | 11.67° C | 72% | 1004.5 hPa | - | - | - | - |
* Rain since midnight (hover to see other rain measurements)
** Current wind speed in m/s (hover to see current wind gust speed)